Location: Newark
(49.8348°N, 24.0280°E)
Time: 14:44:29
(UTC+00:00)

Courier 1B - Visible Passes

Search period start: 24 January 2020 00:00
Search period end: 03 February 2020 00:00
Orbit: 962 x 1209 km, 28.3° (Epoch: 23 January)

Date Brightness Start Highest point End Pass type
(mag) Time Alt. Az. Time Alt. Az. Time Alt. Az.
24 Jan 9.9 02:34:58 12° S 02:35:16 12° S 02:38:02 10° SSE visible
24 Jan 9.9 04:24:41 10° SSW 04:27:56 13° S 04:31:12 10° SSE visible
25 Jan 9.8 03:31:29 11° SSW 03:34:25 13° S 03:37:48 10° SSE visible
26 Jan 9.8 02:41:06 13° S 02:41:06 13° S 02:44:08 10° SSE visible
26 Jan 10.0 04:31:50 10° SSW 04:33:34 11° SSW 04:35:17 10° S visible
27 Jan 9.8 03:37:35 10° SSW 03:40:04 12° S 03:42:38 10° S visible
28 Jan 9.8 02:47:11 12° S 02:47:11 12° S 02:49:25 10° SSE visible
